Location: Bonningues
(50.7927°N, 2.0150°E)
Time: 10:08:14
(UTC+00:00)

Cosmos 2082 Rocket - Pass Details

Date: 08 August 2020
Orbit: 835 x 852 km, 71.0° (Epoch: 20 September)

Event Time Altitude Azimuth Distance (km) Brightness Sun altitude
Rises 21:45:52 0° 217° (SW) 3,404 5.2 -17.4°
Reaches altitude 10° 21:48:20 10° 220° (SW) 2,470 4.5 -17.6°
Maximum altitude 21:53:58 66° 303° (WNW) 921 2.6 -18.1°
Drops below altitude 10° 21:59:38 10° 26° (NNE) 2,474 5.1 -18.6°
Sets 22:02:07 0° 29° (NNE) 3,410 5.8 -18.8°
